Date,TemperatureHighF,TemperatureAvgF,TemperatureLowF,DewpointHighF,DewpointAvgF,DewpointLowF,HumidityHigh,HumidityAvg,HumidityLow,PressureMaxIn,PressureMinIn,WindSpeedMaxMPH,WindSpeedAvgMPH,GustSpeedMaxMPH,PrecipitationSumIn
2014-1-1,26.3,19.5,12.3,14.7,7.8,2.6,79,61,44,30.31,30.14,4,0,10,0.00
2014-1-2,20.0,12.2,2.0,15.0,7.8,-3.0,86,82,78,30.27,29.75,6,2,17,0.00
2014-1-3,10.0,3.8,-4.6,3.3,-3.3,-11.3,82,72,55,30.35,29.63,5,2,12,0.00
2014-1-4,24.5,8.4,-8.2,10.9,-0.6,-14.0,79,67,43,30.44,30.23,3,0,7,0.00
2014-1-5,36.2,25.1,9.9,35.4,19.8,5.8,97,81,58,30.27,29.85,1,0,4,0.03
2014-1-6,55.6,40.6,23.8,55.0,38.2,14.4,98,91,65,29.83,29.25,6,2,11,1.00
2014-1-7,23.8,9.4,3.5,17.3,-5.3,-12.6,84,51,35,30.19,29.45,5,2,13,0.00
2014-1-8,18.3,10.3,2.8,3.5,-2.4,-9.5,67,56,45,30.42,30.19,2,0,9,0.00
2014-1-9,28.4,16.1,10.2,9.4,5.8,2.7,85,65,42,30.59,30.37,4,0,6,0.00
2014-1-10,32.4,24.3,8.8,31.2,22.0,5.0,96,91,84,30.53,30.21,1,0,2,0.00
2014-1-11,57.0,47.2,32.1,56.4,46.6,31.1,98,98,96,30.19,29.21,4,1,10,0.77
2014-1-12,51.0,39.2,31.5,50.5,31.0,22.8,98,73,58,29.92,29.23,6,2,15,0.04
2014-1-13,48.2,37.0,27.3,39.0,29.4,23.4,88,75,50,30.06,29.85,4,1,9,0.00
2014-1-14,42.8,41.3,39.5,40.8,39.7,38.3,98,94,85,29.84,29.64,2,0,5,0.59
2014-1-15,44.5,34.9,28.5,38.5,32.3,27.5,97,91,67,29.95,29.71,3,0,5,0.00
2014-1-16,37.9,34.6,29.8,36.5,33.5,28.5,98,96,93,29.85,29.78,1,0,2,0.01
2014-1-17,42.3,32.9,27.2,34.5,27.7,23.5,97,82,48,29.92,29.83,3,0,9,0.00
2014-1-18,34.0,31.6,28.7,32.2,30.0,26.1,96,94,90,29.85,29.55,2,0,7,0.08
2014-1-19,32.4,27.9,25.0,28.0,22.0,18.7,95,79,62,29.68,29.49,5,2,16,0.01
2014-1-20,40.1,32.6,20.3,30.1,21.9,3.5,88,65,45,29.81,29.43,4,2,19,0.02
2014-1-21,20.0,13.4,7.9,6.8,3.5,-1.5,83,65,50,29.96,29.80,4,1,6,0.00
2014-1-22,13.5,7.6,1.8,3.2,-4.1,-8.5,79,59,42,29.83,29.61,4,2,13,0.00
2014-1-23,17.2,8.1,1.5,-1.2,-5.9,-9.6,68,53,36,30.11,29.83,2,1,6,0.00
2014-1-24,15.4,8.3,2.4,-1.7,-5.7,-8.7,67,53,35,30.22,30.00,4,1,12,0.00
2014-1-25,32.2,20.3,6.1,23.3,12.3,-2.7,89,71,52,29.99,29.29,7,2,13,0.01
2014-1-26,20.2,15.0,9.7,15.1,3.1,-5.4,84,60,42,29.81,29.29,5,1,11,0.00
2014-1-27,39.5,25.7,15.4,34.8,15.8,-4.7,93,68,34,29.92,29.49,6,1,14,0.13
2014-1-28,15.4,12.2,7.4,-1.9,-7.6,-12.7,51,40,32,30.24,29.93,3,1,13,0.00
2014-1-29,23.3,15.6,10.9,5.7,-2.7,-9.9,78,47,24,30.15,29.92,3,0,8,0.00
2014-1-30,28.2,16.3,5.2,11.4,1.7,-5.3,82,54,30,30.37,30.14,2,0,7,0.00
2014-1-31,38.0,29.9,16.2,22.6,15.8,6.3,88,58,34,30.14,29.97,3,1,10,0.01
2014-2-1,43.9,33.9,27.6,29.4,23.1,18.6,88,65,44,30.27,29.96,3,0,5,0.02
2014-2-2,50.4,39.4,32.4,39.7,35.1,29.0,96,86,57,29.99,29.81,3,0,5,0.03
2014-2-3,35.6,29.1,18.3,30.1,25.3,16.1,91,86,74,30.23,30.00,3,1,5,0.00
2014-2-4,33.1,22.6,11.4,22.5,17.3,8.3,90,81,62,30.40,30.22,2,0,5,0.08
2014-2-5,27.8,25.7,24.7,25.5,23.1,21.2,93,90,83,30.26,29.58,3,1,6,0.00
2014-2-9,29.4,23.6,20.8,18.4,15.9,10.6,89,75,46,30.00,29.88,2,0,3,0.01
2014-2-10,20.8,15.2,6.9,17.9,10.2,0.1,89,80,62,30.15,29.84,1,0,2,0.00
2014-2-11,23.5,10.6,-0.2,6.1,0.1,-5.0,85,64,39,30.38,30.16,3,1,13,0.00
2014-2-12,3.9,2.4,0.9,-2.2,-3.7,-5.1,78,75,71,30.40,30.38,1,0,1,0.00
2014-2-13,31.6,31.1,30.7,30.6,30.1,29.4,96,96,95,29.18,28.92,7,5,16,0.00
2014-2-14,31.8,28.7,23.8,31.0,26.2,21.1,97,90,81,29.68,28.80,5,1,16,0.00
2014-2-15,30.1,24.6,16.1,27.6,22.1,13.4,93,90,82,29.78,29.45,5,1,16,0.00
2014-2-16,28.2,21.9,17.2,24.8,12.5,7.4,90,67,51,29.92,29.46,5,2,10,0.00
2014-2-17,28.5,15.5,3.9,6.9,-1.7,-5.3,68,48,26,30.31,29.92,5,1,11,0.00
2014-2-18,27.0,16.6,1.7,25.0,10.8,-5.5,92,78,54,30.29,29.86,2,0,6,0.00
2014-2-19,34.3,23.9,8.4,31.7,20.9,4.8,95,88,74,30.06,29.66,2,0,4,0.00
2014-2-20,47.4,35.4,26.9,32.1,27.5,19.9,96,76,34,30.14,29.80,3,1,6,0.36
2014-2-21,38.0,34.8,32.4,37.2,33.9,31.1,97,96,95,30.06,29.62,2,1,6,0.45
2014-2-22,51.0,37.2,27.8,35.8,27.3,20.3,97,72,31,29.92,29.79,7,1,15,0.19
2014-2-23,48.3,38.4,28.8,29.0,26.1,23.8,85,63,40,29.93,29.71,3,0,7,0.05
2014-2-24,36.2,28.1,19.7,28.8,12.8,4.4,83,53,37,29.89,29.68,6,2,14,0.00
2014-2-25,26.1,19.5,14.8,11.3,7.0,3.3,66,58,47,29.93,29.82,5,1,9,0.00
2014-2-26,28.1,15.7,7.0,10.5,4.3,1.0,79,62,37,29.89,29.71,4,1,13,0.00
2014-2-27,17.8,13.0,9.0,12.9,-0.6,-9.2,82,56,38,29.87,29.71,5,3,14,0.00
2014-2-28,21.9,10.7,2.4,-5.2,-8.9,-13.3,63,42,22,30.38,29.88,3,1,8,0.00
2014-3-1,32.5,17.3,-1.6,18.9,5.0,-9.7,74,59,34,30.39,30.04,5,0,11,0.00
2014-3-2,37.9,30.9,26.4,23.2,18.3,9.8,71,60,49,30.03,29.89,3,1,7,0.00
2014-3-3,26.3,16.8,3.5,11.0,1.3,-4.9,69,50,36,30.24,29.92,5,2,16,0.00
2014-3-4,28.8,14.5,-1.2,9.3,-1.7,-8.3,76,52,27,30.33,30.18,2,0,7,0.00
2014-3-5,27.3,22.2,14.1,19.5,12.3,4.4,85,66,54,30.42,30.15,3,1,7,0.00
2014-3-6,29.5,15.4,2.6,4.4,-4.8,-13.1,65,43,17,30.57,30.42,3,1,7,0.00
2014-3-7,36.8,21.6,0.3,21.7,9.5,-5.8,76,61,40,30.44,29.88,2,0,4,0.00
2014-3-8,50.5,37.2,24.4,27.4,23.9,17.9,78,60,39,29.87,29.65,4,1,10,0.00
2014-3-9,39.6,32.1,27.3,24.2,15.2,9.3,70,50,29,29.88,29.77,6,2,13,0.00
2014-3-10,40.6,33.1,27.3,28.1,21.0,10.2,77,61,47,29.83,29.56,2,0,5,0.00
2014-3-11,56.2,41.9,28.7,34.0,29.0,25.5,94,64,32,29.65,29.43,6,1,12,0.00
2014-3-12,49.4,39.2,35.0,39.7,32.1,27.5,97,77,52,29.64,28.93,3,1,5,0.41
2014-3-13,37.2,18.3,11.1,36.0,9.5,-2.2,96,69,50,29.91,28.93,9,3,18,0.04
2014-3-14,36.0,23.6,8.8,24.4,8.7,-2.6,73,54,28,30.13,29.86,4,1,12,0.02
2014-3-15,53.1,39.8,31.8,36.8,30.3,23.0,95,70,39,29.86,29.61,6,1,17,0.06
2014-3-16,34.1,27.1,21.9,22.3,8.8,1.8,62,47,28,30.13,29.85,5,2,13,0.00
2014-3-17,32.9,21.4,14.9,7.7,0.9,-3.8,62,42,22,30.10,29.97,3,1,9,0.00
2014-3-18,39.8,25.7,13.1,18.0,7.8,-2.5,73,48,24,30.27,30.09,2,0,5,0.00
2014-3-19,42.5,30.9,18.3,30.4,19.7,14.8,91,66,35,30.31,29.91,2,0,6,0.11
2014-3-20,48.0,37.8,32.4,38.8,31.7,23.2,97,80,47,29.89,29.58,5,1,14,0.27
2014-3-21,39.8,34.5,27.9,23.3,21.1,18.6,69,58,46,29.99,29.69,6,2,12,0.00
2014-3-22,54.4,36.2,22.7,38.8,24.6,18.0,85,64,37,30.01,29.62,6,2,14,0.00
2014-3-23,36.9,32.0,23.9,24.6,16.2,6.1,80,54,31,29.99,29.85,5,2,9,0.00
2014-3-24,31.9,21.9,13.1,6.8,0.6,-3.7,54,40,25,30.11,29.99,6,2,13,0.00
2014-3-25,35.3,25.2,11.7,17.5,9.1,4.5,79,52,32,30.09,29.83,3,0,7,0.00
2014-3-26,32.7,27.8,20.5,17.6,9.6,-5.6,64,47,30,29.99,29.59,11,5,19,0.00
2014-3-27,43.1,27.5,17.3,12.9,2.1,-4.9,52,35,19,30.27,29.99,4,2,16,0.00
2014-3-28,47.3,45.7,44.9,46.8,45.0,44.1,98,97,97,29.95,29.93,1,0,3,0.15
2014-3-29,50.4,42.4,36.2,46.0,39.7,35.2,98,91,66,30.15,29.86,4,2,12,0.77
2014-3-30,40.1,37.8,34.7,39.3,36.6,33.2,97,96,93,29.84,29.52,7,4,14,1.44
2014-3-31,38.5,35.0,32.4,33.4,31.4,27.2,96,87,72,29.95,29.62,8,4,13,0.44
2014-4-1,56.2,41.4,30.1,37.1,30.2,25.0,81,66,42,30.04,29.94,4,2,13,0.05
2014-4-2,58.7,41.4,28.7,36.8,30.9,23.6,92,69,42,30.06,29.94,3,1,8,0.00
2014-4-3,57.6,42.1,30.1,31.1,26.6,19.0,94,60,27,30.05,29.96,4,1,10,0.00
2014-4-4,48.3,40.1,34.4,33.0,29.5,24.3,93,67,47,30.07,29.79,3,1,10,0.13
2014-4-5,49.8,39.6,34.1,39.6,31.8,21.9,97,76,45,29.88,29.63,6,2,12,0.07
2014-4-6,57.6,40.7,29.1,27.0,21.5,13.8,76,51,18,30.13,29.89,5,1,9,0.00
2014-4-7,57.0,42.7,29.1,41.0,26.5,12.5,94,59,22,30.16,29.79,3,1,6,0.06
2014-4-8,63.1,50.8,41.9,56.3,45.9,32.7,98,85,55,29.79,29.24,5,2,12,0.38
2014-4-9,44.1,39.6,35.9,33.2,23.0,10.2,85,56,26,29.90,29.47,3,1,13,0.00
2014-4-10,59.3,42.7,26.1,34.2,23.2,14.4,80,50,23,30.09,29.91,6,2,13,0.00
2014-4-11,65.6,54.1,43.6,50.7,41.3,33.2,89,64,39,29.96,29.86,3,1,12,0.02
2014-4-12,68.9,53.2,39.8,45.9,37.0,28.1,97,61,25,30.14,29.90,4,1,10,0.06
2014-4-13,70.4,53.9,39.8,52.7,42.5,34.8,87,67,37,30.16,29.93,4,1,7,0.00
2014-4-14,71.8,63.2,55.6,56.2,53.0,50.7,88,71,52,29.95,29.80,9,4,20,0.00
2014-4-15,60.9,56.4,35.6,59.3,54.7,33.7,97,94,85,29.82,29.48,5,3,14,1.19
2014-4-16,44.5,34.3,26.7,33.7,22.7,15.9,94,64,41,30.52,29.69,7,3,17,0.29
2014-4-17,47.0,34.5,26.7,27.4,21.5,15.5,81,60,40,30.71,30.52,5,2,9,0.00
2014-4-18,46.4,36.6,25.8,33.0,28.2,22.9,90,73,51,30.57,30.17,3,1,5,0.00
2014-4-19,63.4,46.6,31.0,36.4,31.1,26.8,93,60,29,30.33,30.12,7,2,13,0.00
2014-4-20,59.6,44.1,29.4,31.2,24.4,16.3,82,51,21,30.43,30.27,3,1,6,0.00
2014-4-21,70.8,49.3,29.3,38.3,26.2,17.2,90,50,15,30.26,29.79,3,1,11,0.00
2014-4-22,46.7,44.8,43.8,39.7,38.4,37.8,84,78,71,29.78,29.71,1,0,4,0.00
2014-4-23,51.7,48.0,43.3,46.7,36.7,31.5,93,65,52,29.59,29.40,7,5,18,0.26
2014-4-24,57.5,46.7,37.8,31.1,23.3,16.0,62,41,25,29.87,29.59,10,5,20,0.00
2014-4-25,66.4,49.8,31.5,32.8,25.5,14.2,81,42,15,29.96,29.75,4,1,8,0.00
2014-4-26,46.5,43.7,40.3,44.4,39.8,28.5,96,87,50,29.78,29.69,1,0,8,0.52
2014-4-27,51.4,45.2,40.9,42.2,39.5,35.4,97,82,62,29.98,29.75,5,2,10,0.01
2014-4-28,62.0,52.3,42.1,41.9,37.8,35.2,79,59,40,30.12,29.91,5,2,12,0.00
2014-4-29,46.1,41.1,38.0,39.7,35.8,33.6,93,81,69,30.43,30.12,4,2,9,0.02
2014-4-30,43.9,40.4,37.5,42.0,37.9,34.2,97,91,84,30.43,30.07,3,1,7,0.79
2014-5-1,68.6,53.7,43.1,60.8,51.5,42.3,98,93,68,30.05,29.59,3,1,5,0.70
2014-5-2,56.5,54.8,51.4,54.3,50.3,47.1,96,85,79,29.65,29.62,3,1,9,0.01
2014-5-5,-200.0,0.0,200.0,-99.9,-99.9,-99.9,0,0,100,29.78,29.68,0,-999,0,0.00
2014-5-6,-200.0,0.0,200.0,-99.9,-99.9,-99.9,0,0,100,29.81,29.77,0,-999,0,0.00
2014-5-11,57.8,57.7,57.5,41.4,40.3,39.3,55,52,50,29.97,29.97,0,0,0,0.00
2014-5-12,86.3,68.0,47.4,56.8,44.6,37.5,81,49,21,30.04,29.90,4,1,9,0.00
2014-5-13,64.7,54.0,44.5,56.7,42.1,35.9,84,65,44,30.24,29.95,6,2,19,0.00
2014-5-14,44.3,43.0,42.2,37.8,36.5,35.2,81,78,74,30.23,30.22,0,0,0,0.00
2014-5-19,65.3,58.5,46.1,43.8,35.9,29.3,74,45,28,30.05,29.95,5,2,8,0.00
2014-5-20,75.3,60.4,49.1,44.6,39.9,34.1,81,50,25,29.97,29.86,7,2,13,0.00
2014-5-21,77.4,59.4,43.3,50.7,43.9,38.1,91,61,27,29.92,29.82,3,0,4,0.00
2014-5-22,60.1,55.7,53.8,55.4,52.4,46.1,97,89,73,29.87,29.78,1,0,2,0.38
2014-5-23,61.6,55.6,50.8,57.5,53.8,48.5,98,94,84,29.90,29.79,2,0,3,0.05
2014-5-24,63.2,54.4,49.6,53.4,50.1,47.9,96,86,64,29.98,29.86,2,0,5,0.03
2014-5-25,71.1,57.6,47.7,61.3,53.4,46.8,97,87,53,30.01,29.94,5,0,5,0.19
2014-5-26,77.7,62.7,47.1,60.5,54.1,46.0,98,76,44,29.96,29.75,3,0,9,0.02
2014-5-27,74.7,62.5,47.9,62.2,55.2,46.5,95,79,52,29.84,29.74,3,1,6,0.01
2014-5-28,50.7,47.6,42.9,48.4,45.5,39.9,96,93,87,30.14,29.80,3,1,6,0.02
2014-5-29,69.3,52.4,35.3,49.3,42.4,34.0,97,72,39,30.17,30.06,2,0,4,0.00
2014-5-30,69.8,55.7,43.1,56.4,48.9,41.3,96,80,47,30.08,29.91,3,0,4,0.06
2014-5-31,68.1,55.5,43.3,53.3,48.1,37.7,97,78,50,30.24,29.96,4,1,10,0.00
2014-6-1,76.0,54.7,41.3,50.7,43.0,38.1,96,71,27,30.27,30.16,2,0,4,0.00
2014-6-2,82.6,63.8,46.2,58.6,50.2,43.9,93,66,31,30.17,29.93,3,0,9,0.00
2014-6-3,83.8,66.6,51.7,65.9,57.5,50.0,95,75,50,29.95,29.78,2,0,5,0.00
2014-6-4,72.3,62.6,55.3,64.6,58.3,52.2,94,86,73,29.81,29.68,1,0,3,0.03
2014-6-5,62.6,60.4,56.3,60.8,58.8,54.9,96,95,87,29.70,29.58,2,0,4,0.27
2014-6-7,81.4,72.6,59.9,59.2,55.1,50.7,87,57,36,29.88,29.81,3,1,9,0.00
2014-6-8,85.5,68.7,53.9,61.9,55.7,48.5,96,68,28,29.88,29.79,2,0,4,0.00
2014-6-9,75.4,64.0,55.9,61.4,57.2,53.3,94,79,51,29.93,29.83,1,0,6,0.00
2014-6-10,80.5,67.4,60.9,68.4,62.5,56.4,96,85,60,30.01,29.85,3,0,7,0.01
2014-6-11,61.2,60.2,59.0,56.7,55.6,54.0,85,85,84,30.02,30.00,1,0,3,0.00
2014-6-12,64.8,63.8,62.4,63.3,62.2,60.7,95,95,94,29.98,29.96,1,0,3,0.06
2014-6-13,66.8,62.2,59.8,64.7,60.8,58.7,97,95,91,29.96,29.70,2,0,4,0.24
2014-6-14,72.5,63.1,54.8,64.5,57.8,49.0,98,84,61,29.87,29.72,3,1,6,0.01
2014-6-15,76.5,61.5,51.7,59.0,52.4,49.5,93,74,49,29.95,29.85,4,2,7,0.00
2014-6-16,81.6,70.4,52.3,56.4,50.7,41.0,92,54,26,30.08,29.96,2,0,3,0.00
2014-6-17,64.0,58.6,57.3,59.7,54.3,52.5,90,86,79,30.00,29.95,1,0,2,0.00
2014-6-18,82.2,75.8,68.6,68.2,64.0,61.3,93,68,51,29.88,29.68,5,2,10,0.03
2014-6-19,80.3,70.6,57.3,63.9,55.7,39.3,93,63,24,29.90,29.83,3,1,9,0.00
2014-6-20,74.7,61.8,47.7,50.7,45.2,37.8,92,58,29,29.91,29.83,4,1,11,0.00
2014-6-23,59.2,57.6,55.6,51.3,49.8,48.7,79,75,73,30.09,30.08,0,0,0,0.00
2014-6-24,79.2,65.4,52.3,62.4,56.3,49.0,96,74,50,30.10,29.95,2,0,6,0.01
2014-6-25,71.8,62.3,59.2,66.4,59.3,56.0,95,90,83,29.95,29.90,1,0,3,0.06
2014-6-26,62.7,62.1,61.0,60.6,60.0,59.0,93,93,91,29.92,29.90,0,0,1,0.28
2014-6-27,79.6,66.7,55.7,61.9,56.2,50.3,97,72,37,30.14,29.93,3,0,5,0.00
2014-6-28,84.7,68.2,52.9,62.9,55.7,47.8,96,69,28,30.20,30.14,1,0,4,0.00
2014-6-29,70.6,59.7,54.2,60.3,56.1,52.8,96,88,70,30.19,30.04,1,0,1,0.02
2014-6-30,86.1,70.6,56.7,66.1,60.4,54.7,95,73,45,30.05,29.86,2,0,9,0.00
2014-7-1,77.4,67.9,63.7,68.7,63.8,60.6,96,87,74,29.88,29.73,1,0,6,0.04
2014-7-2,87.0,75.0,67.3,77.0,69.5,64.4,96,84,68,29.86,29.74,2,0,9,0.13
2014-7-3,87.2,76.4,67.1,76.0,71.7,65.6,97,87,65,29.96,29.80,1,0,6,0.52
2014-7-4,70.4,65.5,60.4,68.6,64.3,59.5,97,96,89,29.92,29.76,3,0,7,0.95
2014-7-5,77.0,66.3,56.6,59.3,51.6,43.9,97,62,38,29.97,29.76,5,2,11,0.01
2014-7-6,83.6,67.9,52.6,61.0,54.9,50.0,94,66,34,29.97,29.81,3,1,10,0.00
2014-7-7,85.3,72.7,64.0,71.1,65.8,60.5,96,80,57,29.82,29.63,3,0,5,0.07
2014-7-8,86.5,74.4,65.5,72.5,68.5,64.6,97,83,58,29.74,29.60,3,0,5,0.05
2014-7-9,73.5,72.1,71.3,69.1,67.5,65.3,92,86,76,29.64,29.58,3,1,6,0.00
2014-7-10,79.9,76.3,73.5,62.1,59.2,57.2,65,56,46,30.04,30.01,2,0,4,0.00
2014-7-13,79.6,74.0,68.6,69.4,66.9,64.6,96,79,68,29.93,29.83,3,1,6,0.22
2014-7-14,72.7,70.4,68.8,71.5,69.4,67.6,97,97,96,29.83,29.76,1,0,6,0.34
2014-7-15,81.8,74.3,69.3,75.6,72.0,68.2,97,93,80,29.78,29.67,3,0,7,0.56
2014-7-16,71.3,69.4,68.6,70.7,68.7,67.7,98,98,97,29.71,29.67,0,0,1,0.01
2014-7-23,75.6,73.1,70.3,70.1,67.7,66.1,92,83,74,29.76,29.72,3,1,6,0.00
2014-7-24,77.9,71.6,65.3,66.0,62.1,57.1,95,73,56,29.83,29.72,2,1,10,0.01
2014-7-25,78.5,66.0,53.8,61.4,57.2,52.4,95,75,49,29.93,29.83,2,0,7,0.00
2014-7-26,78.3,67.0,56.2,64.6,59.4,54.8,96,79,48,29.92,29.82,2,0,7,0.00
2014-7-27,76.7,69.0,63.7,71.8,66.9,61.7,96,93,82,29.83,29.58,1,0,4,0.20
2014-7-28,80.5,69.9,62.6,71.2,65.9,60.2,98,88,69,29.60,29.36,4,0,6,0.04
2014-7-29,74.4,65.1,55.9,62.3,56.5,51.7,94,75,49,29.88,29.50,2,1,5,0.00
2014-7-30,77.7,64.1,54.4,59.0,54.1,47.9,95,73,35,29.98,29.88,1,0,5,0.00
2014-7-31,80.3,65.1,52.3,62.6,57.5,50.9,96,79,50,30.09,29.98,3,0,5,0.00
2014-8-1,78.8,69.9,61.3,69.0,64.9,59.8,96,85,66,30.14,30.09,1,0,5,0.00
2014-8-2,70.4,65.2,60.2,65.2,62.2,58.1,96,90,72,30.15,30.05,2,0,5,0.04
2014-8-3,75.4,65.4,59.0,65.2,61.0,57.5,96,86,69,30.07,29.96,1,0,5,0.03
2014-8-4,67.6,62.8,61.3,64.8,61.5,59.9,96,96,90,29.97,29.95,0,0,5,0.00